Simultaneous Nadir Overpasses (SNOs) Predictions

Prediction of SNOs between NPP and TERRA Satellite Orbit:

Table of predicted SNOs for the next 14.0 days since TLE Epoch: 2/26/2017
Index Date (NPP) Time (NPP) Lat,Lon (NPP) SZA (NPP ) Date (TERRA) Time (TERRA) Lat,Lon (TERRA) SZA (TERRA ) Distance(km) Time Diff (sec)
1 02/27/2017 18:22:31 68.91, -97.71 76.95 02/27/2017 18:23:41 68.79, -96.65 76.79 44.35 70
2 02/27/2017 19:13:03 -68.30, 70.41 103.70 02/27/2017 19:13:18 -68.30, 70.37 103.71 1.77 15
3 02/27/2017 20:03:47 68.16,-122.11 76.15 02/27/2017 20:02:45 68.18,-122.12 76.17 2.20 62
4 03/02/2017 10:39:15 68.41, 18.73 75.40 03/02/2017 10:40:19 68.43, 18.77 75.42 3.12 64
5 03/02/2017 11:29:56 -68.28,-173.78 104.75 03/02/2017 11:29:50 -68.28,-173.78 104.75 0.21 6
6 03/02/2017 12:20:34 67.82, -5.90 74.77 03/02/2017 12:19:22 67.88, -6.60 74.86 30.00 72
7 03/05/2017 02:56:06 68.34, 134.60 74.30 03/05/2017 02:56:52 68.35, 134.54 74.30 2.59 46
8 03/05/2017 03:46:48 -68.26, -57.98 105.80 03/05/2017 03:46:22 -68.26, -57.94 105.81 1.67 26
9 03/07/2017 19:12:59 68.33,-109.61 73.24 03/07/2017 19:13:26 68.32,-109.63 73.23 0.99 27
10 03/07/2017 20:03:40 -68.19, 57.89 106.92 03/07/2017 20:02:57 -68.18, 57.83 106.93 2.90 43
11 03/10/2017 10:39:17 -68.91,-161.91 107.19 03/10/2017 10:40:27 -68.80,-160.82 107.34 45.34 70
12 03/10/2017 11:29:52 68.32, 6.19 72.18 03/10/2017 11:30:01 68.29, 6.20 72.15 2.66 9
13 03/10/2017 12:20:33 -68.17, 173.69
